Regional Weather Roundup
Issued by NWS Newport/Morehead, NC

Current Version | Previous Version | Text Only | Print | Product List | Glossary On
Versions: 1 2 3 4 5 6 7 8 9 10 11 12 13 14 15 16 17 18 19 20 21 22 23 24 25 26 27 28 29 30 31 32 33 34 35 36 37 38 39 40 41 42 43 44 45 46 47 48 49 50
000 ASUS42 KMHX 290813 RWRMHX WEATHER ROUNDUP FOR EASTERN NORTH CAROLINA NATIONAL WEATHER SERVICE NEWPORT/MOREHEAD CITY NC 400 AM EDT SUN MAY 29 2016 NOTE: "FAIR" INDICATES FEW OR NO CLOUDS BELOW 12,000 FEET WITH NO SIGNIFICANT WEATHER AND/OR OBSTRUCTIONS TO VISIBILITY NCZ015>017-031-032-045>047-102-103-290900- NORTH COAST CITY SKY/WX TMP DP RH WIND PRES REMARKS EDENTON FOG N/A N/A N/A E3 30.11F VSB 1/4 ELIZABETH CITY CLEAR 70 69 97 E3 30.11F KITTY HAWK PTSUNNY 70 69 98 E3 30.10F FOG MANTEO NOT AVBL $$ NCZ045>047-081-094-103-104-290900- CENTRAL COAST CITY SKY/WX TMP DP RH WIND PRES REMARKS FRISCO CLEAR 75 72 90 SE9 30.09F $$ NCZ095-097-098-100-101-290900- SOUTHERN COAST CITY SKY/WX TMP DP RH WIND PRES REMARKS BEAUFORT CLEAR 75 72 90 E5 30.06S CEDAR ISLAND NOT AVBL JACKSONVILLE LGT RAIN 73 71 93 NE6 30.04F PINEY ISLAND NOT AVBL WILMINGTON CLOUDY 74 72 93 NE10 30.02F $$ NCZ011>013-027>030-043-044-078>080-089-090>093-098-290900- COASTAL PLAIN CITY SKY/WX TMP DP RH WIND PRES REMARKS AHOSKIE PTCLDY 65 64 94 CALM 30.11F CLINTON CLOUDY 72 71 97 NE3 30.07S ELIZABETHTOWN LGT RAIN 71 71 100 CALM 30.04F GOLDSBORO NOT AVBL GREENVILLE CLOUDY 70 70 100 CALM 30.10F HAVELOCK PTCLDY 73 70 90 E3 30.07F KENANSVILLE CLOUDY 70 69 97 CALM 30.08S KINSTON MOCLDY 71 70 96 NE3 30.08F NEW BERN PTCLDY 72 70 93 NE6 30.07F RICHLANDS CLOUDY 72 71 97 NE7 30.06F ROCKY MOUNT CLOUDY 68 67 96 CALM 30.10S WASHINGTON RAIN 69 68 98 E5 30.09S WHITEVILLE RAIN 72 70 94 NE5 30.03S $$ AMZ130-135-150-152-154-156-158-170-250-252-270-ANZ085-086-088-633-658-670-290900- MARINE OBSERVATIONS STATION/POSITION TIME TEMP WIND PRES WAVE SWELL AIR SEA DIR/SP/G HT/PER HT/PER (UTC) (F) (DEG/KT/KT) (MB) (FT/S) (FT/S) CHESAPEAKE LIGHT 0800 70 120/ 10/ 11 1020.4 64 E VA BEACH 0750 69 64 120/ 6/ 6 1019.8 3/ 8 3/ 8 DUCK 0700 68 60 90/ 7/ 8 1019.1 2 E DUCK 0711 67 N/A 3/ 8 OREGON INLET 0700 71 77 80/ 4/ 5 1019.5 13E OREGON INLT 0800 71 N/A 3/ 8 3/ 8 HATTERAS CG 0700 76 76 140/ 7/ 10 1018.7 DIAMOND BUOY 0750 78 79 140/ 16/ 17 1018.5 4/ 8 2/ 8 CAPE LOOKOUT 0800 76 130/ 11/ 12 1017.4 BEAUFORT LAB 0700 75 74 80/ 5/ 7 1017.2 30 SE NEW RVR IN 0725 75 N/A 5/ 7 27 SE WRIGHTSVLE 0708 77 76 140/ 14/ 19 1016.0 5 SE WRIGHTSVLE 0708 75 74 80/ 14/ 19 1017.5 225 S CAPE HAT 0750 75 75 120/ 14/ 16 1017.9 4/ 7 2/ 7 41 SE CHARLESTON 0750 78 78 100/ 17/ 21 1011.5 7/ 8 3/13 $$

USA.gov is the U.S. government's official web portal to all federal, state and local government web resources and services.